Flight Information

DEPARTURE
VAN NUYS, CA
Elevation:
802
Runways:
16L/34R - 4013x75 - ASPH-G
16R/34L - 8001x150 - ASPH-G
Active PE Departure:
16L - 16R
Current PE ATIS:
G
Altimeter:
30.01
Remarks:
ATIS:
127.55 818-780-4993
Clearance Delivery:
126.6
Ground:
121.7
Tower:
119.3 (162-345 and dep Rwy 16R-34L)
120.2 (346-161 and dep Rwy 16L-34R)
DESTINATION
,
Elevation:
TPA:
1000 (est.)


6793.7 NM73° True-14° Var59° HDG

Flight Plan:
(click to file on line)

1. Type
2. Aircraft Identification
3. Aircraft Type / Special Equipment
4. True Airspeed
kts
5. Departure Airport
(ICAO code)
6. Arriving Airport
(ICAO code)
7. Cruising Altitude
ft
8. Alternate Airport
(ICAO code)
9. Route of Flight
10. Remarks


00:00:00 Departure ATIS: Destination ATIS:

Clearance Limit:
Route:
Altitude: Expect in minutes
Frequency:
Transponder: (7500 Hijack / 7600 Lost Comms / 7700 Emergency)


KVNY 221551Z 00000KT 10SM BKN014 13/09 A3001 RMK AO2 SLP157 T01280089
Time: 2021-01-22T15:51:00Z
1611332520
Winds: calm
Visibility: 10.0 sm
Clouds (AGL): BKN 1400
Temperature: 12.8 C
Dew Point: 8.9 C
Pressure: 30.008858 in Hgbr


Notes:

Data extracted from FAA Digital Chart Supplement. Effective: 0901Z Thursday, Dec 31, 2020 to 0901Z Thursday, Jan 28, 2021
Current ATIS data is provided courtisy of PilotEdge.